Total_Precipitation_Accumulation
1.77 1.84 1.87 1.90 1.80 1.92 2.09 2.32 2.24 2.32 2.38 2.18 1.90 1.78 1.83 1.84 1.91 1.88 1.82 2.03 1.95 1.93 2.38 2.48 2.21 1.93 1.77 1.51 1.28 1.07 0.98 0.91 0.79 0.63 0.54 0.58 0.65 0.72 0.66 0.56 0.52 0.48 0.41
2.17 2.11 1.95 1.96 1.89 1.93 2.00 2.18 2.29 2.59 2.56 2.48 2.06 1.89 1.92 1.99 1.99 2.07 1.99 2.27 2.16 1.90 2.12 2.35 2.43 2.28 2.05 1.85 1.60 1.38 1.20 1.09 0.94 0.69 0.57 0.55 0.59 0.68 0.67 0.66 0.60 0.54 0.45
2.37 2.28 2.14 1.97 2.00 2.04 2.15 2.18 2.32 2.60 2.58 2.47 2.23 2.08 1.99 1.83 1.72 1.78 1.85 2.04 1.96 1.84 1.91 2.10 2.35 2.41 2.28 2.17 2.02 1.84 1.54 1.30 1.11 0.86 0.69 0.56 0.49 0.54 0.56 0.59 0.59 0.57 0.48
2.44 2.42 2.20 1.96 2.10 2.07 2.17 2.37 2.47 2.63 2.78 2.79 2.49 2.21 2.05 1.88 1.70 1.66 1.61 1.62 1.77 1.49 1.69 1.93 2.10 2.21 2.48 2.59 2.59 2.58 2.17 1.67 1.30 1.08 0.88 0.70 0.57 0.51 0.46 0.47 0.51 0.48 0.40
2.33 2.38 2.16 2.05 2.17 2.30 2.30 2.16 2.57 2.80 2.84 2.86 2.42 2.23 1.90 1.75 1.58 1.46 1.48 1.35 1.42 1.41 1.44 1.54 1.72 1.83 2.29 2.83 3.13 3.17 2.93 2.32 1.72 1.39 1.21 1.05 0.87 0.71 0.55 0.46 0.45 0.40 0.33
2.18 2.38 2.07 2.04 2.25 2.41 2.39 2.45 2.77 2.88 2.75 2.86 2.47 2.09 1.72 1.40 1.34 1.28 1.19 1.15 1.12 1.01 1.08 1.33 1.64 1.52 1.92 2.40 2.73 2.96 3.17 2.98 2.35 1.79 1.56 1.42 1.27 1.05 0.78 0.61 0.53 0.49 0.41
2.33 2.61 2.32 2.39 2.35 2.31 2.33 2.50 2.69 2.61 2.46 2.83 2.87 2.19 1.51 1.13 1.07 0.91 0.90 0.93 0.86 0.89 1.11 1.42 1.60 1.67 1.52 1.59 1.80 2.14 2.66 3.03 2.91 2.38 2.02 1.81 1.67 1.35 1.01 0.83 0.67 0.58 0.51
2.42 2.40 2.46 2.35 2.37 2.39 2.21 2.27 2.53 2.41 2.06 2.43 2.67 2.64 1.96 1.48 1.08 0.68 0.72 0.76 0.80 0.99 1.08 1.13 1.41 1.68 1.59 1.71 1.51 1.44 1.96 2.57 2.99 2.94 2.59 2.19 1.84 1.50 1.25 1.10 0.90 0.73 0.60
2.46 2.46 2.30 2.17 2.22 2.17 2.05 2.01 2.20 2.28 2.07 2.06 2.38 2.73 2.22 1.64 1.27 0.84 0.77 0.78 0.97 1.23 1.23 1.22 1.32 1.51 1.59 1.76 1.87 1.77 1.61 1.80 2.42 3.14 3.19 2.59 1.92 1.49 1.30 1.28 1.26 1.04 0.84
2.72 2.50 2.27 2.10 1.99 1.90 1.91 1.70 1.91 2.04 2.09 1.79 1.94 2.03 1.90 1.85 1.78 1.31 0.97 0.90 1.11 1.24 1.26 1.26 1.30 1.45 1.53 1.74 1.91 1.84 1.47 1.34 1.62 2.47 3.01 2.92 2.35 1.73 1.41 1.46 1.77 1.67 1.26
2.81 2.51 2.36 2.21 2.05 1.90 1.79 1.71 1.83 1.77 1.76 1.67 1.76 1.79 1.79 1.76 1.67 1.61 1.32 1.20 1.15 0.92 0.94 1.03 1.22 1.53 1.61 1.69 1.90 1.77 1.62 1.58 1.52 1.66 1.99 2.27 2.37 2.10 1.81 1.81 2.23 2.47 2.21
2.41 2.24 2.15 2.04 1.89 1.87 1.87 1.81 1.74 1.68 1.69 1.74 1.73 1.67 1.74 1.76 1.73 1.78 1.55 1.38 1.25 1.03 0.99 1.02 1.14 1.34 1.43 1.49 1.52 1.61 1.62 1.60 1.48 1.42 1.45 1.54 1.74 1.96 2.11 2.28 2.66 3.02 3.15
1.68 1.67 1.74 1.74 1.68 1.71 1.74 1.79 1.65 1.56 1.62 1.71 1.68 1.65 1.68 1.69 1.74 1.82 1.75 1.44 1.35 1.18 1.22 1.14 1.09 1.24 1.27 1.44 1.56 1.53 1.35 1.32 1.17 1.13 1.15 1.20 1.33 1.54 1.69 1.89 2.30 2.76 3.12
1.44 1.51 1.57 1.55 1.54 1.56 1.54 1.68 1.53 1.45 1.47 1.47 1.44 1.67 1.66 1.49 1.65 1.80 1.84 1.81 1.66 1.52 1.58 1.40 1.19 1.18 1.30 1.42 1.49 1.45 1.26 1.13 0.96 0.88 0.88 0.91 0.97 1.13 1.33 1.53 1.76 1.99 2.24
1.45 1.50 1.45 1.48 1.51 1.56 1.62 1.67 1.52 1.44 1.53 1.45 1.42 1.61 1.62 1.56 1.64 1.72 1.87 1.96 2.04 1.90 1.79 1.65 1.37 1.27 1.31 1.33 1.47 1.38 1.38 1.25 1.00 0.91 0.88 0.86 0.84 0.89 1.02 1.22 1.39 1.52 1.72
1.54 1.57 1.52 1.56 1.56 1.54 1.57 1.58 1.37 1.37 1.53 1.56 1.62 1.77 1.74 1.66 1.70 1.76 1.91 2.09 2.27 2.24 1.93 1.54 1.41 1.41 1.49 1.41 1.54 1.40 1.38 1.44 1.21 1.02 0.91 0.90 0.89 0.91 0.95 1.09 1.24 1.37 1.49
1.52 1.53 1.51 1.54 1.53 1.50 1.54 1.54 1.38 1.47 1.55 1.56 1.59 1.69 1.72 1.75 1.78 1.81 1.96 2.05 2.24 2.45 2.20 1.76 1.64 1.68 1.78 1.76 1.66 1.48 1.30 1.25 1.14 1.09 0.95 0.90 0.89 0.91 0.97 1.03 1.16 1.28 1.36
1.53 1.56 1.57 1.59 1.49 1.50 1.65 1.67 1.57 1.64 1.67 1.62 1.65 1.72 1.61 1.72 1.86 1.85 1.96 1.99 2.08 2.35 2.25 2.01 1.94 1.93 1.98 1.91 1.88 1.69 1.39 1.25 1.19 1.14 0.96 0.87 0.86 0.86 0.90 0.92 1.01 1.16 1.28
1.62 1.66 1.72 1.78 1.76 1.78 1.76 1.78 1.86 1.84 1.73 1.63 1.68 1.66 1.61 1.77 1.80 1.87 1.97 1.92 1.91 2.06 2.20 2.13 2.09 2.16 2.18 2.06 1.97 1.80 1.63 1.56 1.29 1.20 1.12 1.04 1.02 1.01 1.00 0.98 0.99 1.07 1.19
1.68 1.73 1.80 1.96 2.13 2.17 2.14 2.05 1.96 1.88 1.80 1.74 1.70 1.66 1.65 1.70 1.71 1.76 1.84 1.89 1.94 2.04 2.13 2.15 2.20 2.35 2.35 2.39 2.32 2.07 1.96 1.90 1.62 1.29 1.28 1.21 1.14 1.08 1.00 0.94 0.93 0.99 1.08
1.60 1.86 2.02 2.12 2.37 2.49 2.35 2.34 2.23 2.13 2.10 1.93 1.81 1.72 1.61 1.59 1.62 1.65 1.59 1.66 1.78 1.90 1.90 1.95 2.01 2.23 2.32 2.44 2.41 2.23 2.10 2.09 1.93 1.58 1.45 1.36 1.31 1.21 1.16 1.12 1.01 0.96 1.00
1.51 1.68 1.83 1.95 1.99 1.88 2.03 2.04 2.01 2.02 2.05 1.94 1.88 1.83 1.67 1.53 1.47 1.41 1.31 1.31 1.40 1.49 1.65 1.84 1.89 2.07 2.25 2.38 2.53 2.59 2.45 2.29 2.17 1.92 1.81 1.68 1.47 1.41 1.26 1.14 1.11 0.94 0.85
1.45 1.55 1.60 1.66 1.65 1.71 1.74 1.54 1.48 1.46 1.59 1.69 1.77 1.76 1.54 1.38 1.43 1.34 1.35 1.31 1.28 1.34 1.44 1.65 1.81 1.87 2.07 2.27 2.49 2.65 2.65 2.54 2.38 2.23 2.12 1.97 1.65 1.46 1.29 1.17 1.10 0.88 0.76
1.50 1.50 1.54 1.57 1.66 1.65 1.56 1.35 1.35 1.30 1.41 1.52 1.60 1.62 1.57 1.48 1.47 1.51 1.45 1.34 1.24 1.29 1.37 1.37 1.41 1.56 1.81 2.16 2.36 2.39 2.50 2.49 2.39 2.27 2.21 2.16 1.91 1.71 1.50 1.36 1.27 1.00 0.84
1.71 1.65 1.67 1.72 1.72 1.68 1.57 1.36 1.36 1.31 1.41 1.46 1.47 1.48 1.48 1.42 1.47 1.38 1.31 1.30 1.29 1.31 1.29 1.27 1.24 1.29 1.42 1.64 1.99 2.13 2.19 2.15 2.05 1.84 1.74 1.81 1.77 1.72 1.66 1.53 1.36 1.20 1.00
2.10 2.08 1.98 1.88 1.77 1.69 1.65 1.37 1.30 1.26 1.34 1.39 1.46 1.44 1.37 1.24 1.20 1.15 1.14 1.26 1.24 1.23 1.27 1.22 1.14 1.08 1.05 1.21 1.50 1.69 1.76 1.79 1.69 1.65 1.40 1.39 1.42 1.47 1.59 1.47 1.32 1.25 1.18